Weather in Nizhnyaya Chigara

Russia / Tomsk District     58°34′27″N   81°47′11″E
temp.,
°C
wind,
m/s
gust,
m/s
humid.,
%
clouds,
%
prec.,
mm/h
press.,
hPa
HPBL,
m
9 december, thu
thu901:00−19w379645 0.1 1034208
04:00−20wsw379639 0.0 1035182
07:00−18wsw31094100 0.0 1035289
10:00−17wsw41191100 0.0 1035322
13:00−14wsw51486100 0.0 1035408
16:00−13wsw51487100 0.0 1035505
19:00−13wsw51487100 0.0 1035468
22:00−14sw5148863 0.0 1035405
10 december, fri
fri1001:00−14sw4129392 0.0 1034374
04:00−12wsw41093100 0.1 1034462
07:00−12wsw399382 0.3 1034368
10:00−13sw279575 0.1 1035224
13:00−12sw389473 0.1 1035273
16:00−11ssw389597 0.0 1034241
19:00−9s41095100 0.3 1033350
22:00−8ssw41289100 0.1 1031439
11 december, sat
sat1101:00−8ssw51477100 0.1 1029450
04:00−8ssw51772100 0.0 1026526
07:00−8ssw61773100 0.0 1024564
10:00−7sw51576100 0.0 1022617
13:00−7sw51290100 0.1 1021674
16:00−7sw4109299 0.5 1020654
19:00−8w4992100 0.6 1020658
22:00−11wnw389278 0.1 1021333
12 december, sun
sun1201:00−17wsw269725 0.1 1021115
04:00−18w279756 0.0 1021160
07:00−19w269968 0.0 1021127
10:00−21w269979 0.0 1022137
13:00−18wnw379499 0.1 1023407
16:00−18wnw3793100 0.1 1024491
19:00−21w12100100 0.1 102528
22:00−22w1110099 0.0 102618
13 december, mon
mon1301:00−22w2410081 0.1 102767
04:00−21w1498100 0.0 1027179
07:00−20w2596100 0.1 1027283
10:00−19wnw1394100 0.0 1027267
13:00−18nw2390100 0.0 1027346
16:00−18nw2490100 0.0 1028351
19:00−21nw139881 0.0 102871
22:00−26nw231005 0.0 102942